Location: Bremen
(53.0830°N, 8.8000°E)
Time: 11:04:18
(UTC+01:00)

Envisat - Pass Details

Date: 06 October 2022
Orbit: 763 x 765 km, 98.2° (Epoch: 01 December)

Event Time Altitude Azimuth Distance (km) Brightness Sun altitude
Rises 04:05:18 0° 30° (NNE) 3,247 7.2 -30.5°
Reaches altitude 10° 04:09:35 10° 65° (ENE) 2,312 6.4 -30.0°
Maximum altitude 04:11:04 11° 82° (E) 2,227 6.1 -29.8°
Drops below altitude 10° 04:12:34 10° 99° (E) 2,307 6.0 -29.6°
Sets 04:16:48 0° 134° (SE) 3,225 6.4 -29.1°
